Regional Weather Roundup
Issued by NWS

Home | Current Version | Previous Version | Text Only | Print | Product List | Glossary On
Versions: 1 2 3 4 5 6 7 8 9 10 11 12 13 14 15 16 17 18 19 20 21 22 23 24 25 26 27 28 29 30 31 32 33 34 35 36 37 38 39 40 41 42 43 44 45 46 47 48 49 50
000
ASUS43 KTOP 200559
RWRKS

WEATHER ROUNDUP FOR KANSAS
NATIONAL WEATHER SERVICE GOODLAND KS
1200 AM CST MON NOV 20 2017

NOTE:  "FAIR" INDICATES FEW OR NO CLOUDS BELOW 12,000 FEET WITH NO
SIGNIFICANT WEATHER AND/OR OBSTRUCTIONS TO VISIBILITY.

KSZ001>006-013>018-027>032-041>047-200700-
NORTHWEST KANSAS

CITY           SKY/WX    TMP DP  RH WIND       PRES   REMARKS
GOODLAND       CLOUDY    41  15  35 SW13      29.89F
6HR MIN TEMP:  36; 6HR MAX TEMP:  49;

HAYS           CLEAR     36  22  56 SW9       29.94F
HILL CITY      CLEAR     40  25  55 SW9       29.90F
6HR MIN TEMP:  40; 6HR MAX TEMP:  49;

RUSSELL        CLOUDY    40  22  48 S13       29.92F WCI  32
6HR MIN TEMP:  39; 6HR MAX TEMP:  49;

$$

KSZ061>065-074>080-084>089-200700-
SOUTHWEST KANSAS

CITY           SKY/WX    TMP DP  RH WIND       PRES   REMARKS
DODGE CITY     CLEAR     40  17  39 SW13      29.97F WCI  32
6HR MIN TEMP:  38; 6HR MAX TEMP:  48;

GARDEN CITY    CLEAR     36  18  48 SW10      29.94F WCI  28
6HR MIN TEMP:  35; 6HR MAX TEMP:  51;

GREAT BEND     CLOUDY    38  20  48 S13       29.97F WCI  30
LIBERAL        CLEAR     40  17  39 SW15      29.99F WCI  32
$$

KSZ066>073-081>083-090>101-200700-
SOUTHEAST KANSAS

CITY           SKY/WX    TMP DP  RH WIND       PRES   REMARKS
CHANUTE        CLEAR     43  29  57 S12       30.10F
6HR MIN TEMP:  39; 6HR MAX TEMP:  46;

COFFEYVILLE    CLEAR     39  30  70 S6        30.13F
6HR MIN TEMP:  38; 6HR MAX TEMP:  47;

HUTCHINSON     CLOUDY    42  24  49 S9        30.02F
6HR MIN TEMP:  41; 6HR MAX TEMP:  50;

MEDICINE LODGE   N/A     39  23  52 SE5       30.04F
NEWTON         CLEAR     45  23  42 S18       30.03F
PARSONS        CLEAR     42  30  62 S8        30.12F
6HR MIN TEMP:  42; 6HR MAX TEMP:  48;

WICHITA INTL   CLEAR     42  26  53 S13       30.05F
6HR MIN TEMP:  40; 6HR MAX TEMP:  48;

WICHITA JABRA  CLEAR     46  25  43 S17       30.04F
6HR MIN TEMP:  45; 6HR MAX TEMP:  49;

WICHITA MCCONL CLEAR     44  24  44 SW15      30.05F
WINFIELD       CLEAR     45  26  47 S10       30.09F
6HR MIN TEMP:  42; 6HR MAX TEMP:  47;

$$

KSZ007>012-019>026-033>040-048>060-102>105-200700-
NORTHEAST KANSAS

CITY           SKY/WX    TMP DP  RH WIND       PRES   REMARKS
CONCORDIA      CLOUDY    43  23  45 S17       29.92F
6HR MIN TEMP:  43; 6HR MAX TEMP:  49;

EMPORIA        CLOUDY    41  26  55 S16       30.03F
6HR MIN TEMP:  40; 6HR MAX TEMP:  44;

LAWRENCE       CLOUDY    46  29  51 S12       30.03S
6HR MIN TEMP:  40; 6HR MAX TEMP:  46;

MANHATTAN      CLOUDY    48  24  39 SW17      29.97F
6HR MIN TEMP:  42; 6HR MAX TEMP:  48;

OLATHE IND     CLOUDY    41  30  65 S13       30.04F
6HR MIN TEMP:  39; 6HR MAX TEMP:  44;

OLATHE EXE     CLOUDY    42  29  59 S13       30.04F
6HR MIN TEMP:  40; 6HR MAX TEMP:  43;

SALINA         CLEAR     45  24  43 S12       29.97F
6HR MIN TEMP:  44; 6HR MAX TEMP:  51;

TOPEKA BILLARD CLOUDY    47  27  45 S13       30.00F
6HR MIN TEMP:  46; 6HR MAX TEMP:  50;

TOPEKA FORBES  CLOUDY    46  27  47 S14G22    30.01S
6HR MIN TEMP:  44; 6HR MAX TEMP:  48;

$$




USA.gov is the U.S. government's official web portal to all federal, state and local government web resources and services.